Regional Weather Roundup
Issued by NWS Little Rock, AR

Home | Current Version | Previous Version | Text Only | Print | Product List | Glossary On
Versions: 1 2 3 4 5 6 7 8 9 10 11 12 13 14 15 16 17 18 19 20 21 22 23 24 25 26 27 28 29 30 31 32 33 34 35 36 37 38 39 40 41 42 43 44 45 46 47 48 49 50
000
ASUS44 KLZK 260205
RWRLZK

WEATHER ROUNDUP FOR ARKANSAS
NATIONAL WEATHER SERVICE LITTLE ROCK AR
900 PM CDT THU MAY 25 2017

NOTE: "FAIR" INDICATES FEW OR NO CLOUDS BELOW 12,000 FEET WITH NO
SIGNIFICANT WEATHER AND/OR OBSTRUCTIONS TO VISIBILITY.

ARZ001-003-010-029-260300-
NORTHWEST ARKANSAS

CITY           SKY/WX    TMP DP  RH WIND       PRES   REMARKS
FAYETTEVILLE   CLEAR     72  57  59 SE6       29.66R
FORT SMITH     CLEAR     76  58  53 E6        29.65R
HARRISON       CLEAR     68  55  63 SE10      29.71R
BENTONVILLE    PTCLDY    72  55  56 SE7       29.67R
ROGERS         PTCLDY    70  57  63 SE8       29.68R
SILOAM SPGS    CLOUDY    72  54  53 S9        29.65R
HIGHFILL       CLOUDY    69  57  65 SE8       29.66R
SPRINGDALE     PTCLDY    72  57  60 SE8       29.68R
$$

ARZ004-005-016-260300-
NORTH CENTRAL ARKANSAS

CITY           SKY/WX    TMP DP  RH WIND       PRES   REMARKS
BATESVILLE     CLEAR     70  55  60 SE3       29.75S
FLIPPIN        CLEAR     72  54  53 SE5       29.69S
MTN HOME       CLEAR     68  56  65 S5        29.71R
$$

ARZ040-041-260300-
WEST CENTRAL ARKANSAS

CITY           SKY/WX    TMP DP  RH WIND       PRES   REMARKS
MENA           CLEAR     79  64  61 SE3       29.71R
MOUNT IDA      CLEAR     75  58  55 VRB7      29.70R
$$

ARZ009-017-025-026-028-260300-
NORTHEAST ARKANSAS

CITY           SKY/WX    TMP DP  RH WIND       PRES   REMARKS
JONESBORO      CLEAR     68  57  68 S8        29.77R
WALNUT RIDGE   CLEAR     68  57  68 S9        29.76R
BLYTHEVILLE    CLEAR     70  55  59 S8        29.79R
$$

ARZ022-023-033-042-044-260300-
CENTRAL ARKANSAS

CITY           SKY/WX    TMP DP  RH WIND       PRES   REMARKS
LITTLE ROCK    PTCLDY    70  60  70 SE7       29.74S
N LITTLE ROCK    N/A     73  60  63 S6        29.74S
JACKSONVILLE   CLEAR     73  59  62 E3        29.74R
CONWAY           N/A     73  61  64 SE7       29.71S
SEARCY         CLEAR     68  60  75 SE5       29.77R
HOT SPRINGS    CLEAR     76  60  57 SE6       29.73R
RUSSELLVILLE   CLEAR     73  58  59 CALM      29.70R
CLINTON        FAIR      66  61  82 CALM      29.74R
$$

ARZ036-260300-
EAST ARKANSAS

CITY           SKY/WX    TMP DP  RH WIND       PRES   REMARKS
WEST MEMPHIS   CLEAR     66  58  75 S5        29.79R
$$

ARZ050-053-066-070-073-260300-
SOUTHWEST ARKANSAS

CITY           SKY/WX    TMP DP  RH WIND       PRES   REMARKS
ARKADELPHIA    FAIR      70  66  87 CALM      29.73R
CAMDEN         PTCLDY    72  61  68 SE6       29.73S
TEXARKANA      CLOUDY    74  64  71 S7        29.71R
EL DORADO      CLEAR     73  64  73 SE6       29.75S
DE QUEEN       CLEAR     75  65  70 SE5       29.67R
$$

ARZ056-057-069-260300-
SOUTHEAST ARKANSAS

CITY           SKY/WX    TMP DP  RH WIND       PRES   REMARKS
PINE BLUFF     CLOUDY    71  60  68 SE9       29.76S
STUTTGART      PTCLDY    72  54  53 SE8       29.77S
MONTICELLO     CLEAR     72  61  68 SE5       29.78S

$$





USA.gov is the U.S. government's official web portal to all federal, state and local government web resources and services.